[[[{"header":{"parameterUnit":"kt","parameterCategory":2,"dx":1,"dy":1,"la1":30.253999710083008,"la2":30.299108505249023,"lo1":-89.0895004272461,"lo2":-89.04439544677734,"nx":28,"ny":28,"refTime":"2022-10-29T21:00:00:Z","depth":"0","parameterNumber":2,"parameterNumberName":"U-component_of_CURRENTS"},"data":[0.1852,0.1924,0.1966,0.2101,0.2191,0.23,0.2403,0.2581,0.2838,0.3336,0.3723,0.4045,0.4701,0.5254,0.5413,0.5286,0.4719,0.4702,0.444,0.4582,0.4518,0.4457,0.45,0.5052,0.5052,0.3929,0.3922,0.3916,0.1829,0.1887,0.1981,0.2082,0.2177,0.2227,0.2415,0.2494,0.2783,0.3178,0.353,0.4144,0.4581,0.4825,0.5211,0.5155,0.4665,0.5008,0.4366,0.4204,0.4534,0.4606,0.519,0.519,0.519,0.519,0.519,0.519,0.1781,0.1838,0.1911,0.2004,0.21,0.2227,0.2294,0.2471,0.2708,0.3009,0.3315,0.3712,0.4182,0.4629,0.4632,0.4751,0.4397,0.4556,0.4426,0.4058,0.4,0.4432,0.4925,0.4923,0.4922,0.4921,0.4919,0,0.1727,0.1765,0.182,0.1925,0.2004,0.2079,0.2187,0.2307,0.2419,0.263,0.3018,0.3291,0.3766,0.4043,0.4283,0.4282,0.3635,0.394,0.3827,0.3684,0.3393,0.3291,0.3406,0.3726,0.3718,0.3711,0.3707,0.3703,0.1658,0.1704,0.1785,0.1834,0.1863,0.1928,0.1994,0.2044,0.2149,0.2409,0.2543,0.2856,0.3144,0.3473,0.3533,0.3624,0.3301,0.3725,0.3511,0.3509,0.3434,0.308,0.2957,0.3612,0.3624,0.3633,0.3641,0,0.1629,0.164,0.1707,0.1755,0.1774,0.1829,0.1908,0.1979,0.2032,0.2197,0.2233,0.2388,0.2627,0.263,0.2674,0.2673,0.2766,0.2899,0.3011,0.3092,0.3379,0.328,0.3241,0.3136,0.328,0.3292,0.3302,0,0.1571,0.161,0.1642,0.1679,0.1741,0.1739,0.1806,0.1824,0.1903,0.202,0.1969,0.2136,0.204,0.219,0.2129,0.2419,0.2245,0.2455,0.2521,0.255,0.2591,0.2596,0.2501,0.2028,0.2027,0.2026,0.2025,0,0.1538,0.1565,0.1609,0.1623,0.1662,0.1684,0.1705,0.1745,0.181,0.1828,0.1912,0.1891,0.2,0.1943,0.2061,0.1941,0.2168,0.2008,0.2397,0.2426,0.256,0.2606,0.2661,0.2023,0.2022,0.2022,0.2021,0,0.1494,0.1526,0.1566,0.1604,0.1617,0.1635,0.1696,0.1711,0.1753,0.1771,0.1792,0.1825,0.1853,0.1815,0.1875,0.1844,0.1868,0.1885,0.1892,0.2318,0.2367,0.2595,0.2724,0.2667,0.1998,0.1997,0.1996,0,0.1477,0.1514,0.1514,0.1552,0.1586,0.1601,0.1617,0.1645,0.1674,0.172,0.1724,0.1781,0.1749,0.179,0.177,0.1836,0.1839,0.1784,0.1924,0.1929,0.2309,0.2398,0.2491,0.2682,0.1983,0.1984,0.1985,0,0.1471,0.15,0.1508,0.1533,0.1559,0.1587,0.1593,0.1631,0.1666,0.167,0.1717,0.1729,0.1755,0.1783,0.1807,0.18,0.1825,0.182,0.1822,0.1895,0.1907,0.2327,0.2377,0.1808,0.1808,0.1808,0.1975,0,0.1477,0.1496,0.1503,0.1539,0.1555,0.1577,0.1609,0.1623,0.1647,0.1679,0.1709,0.1742,0.1799,0.1792,0.1816,0.1828,0.1868,0.186,0.1888,0.1858,0.1938,0.1946,0.187,0.1871,0.1872,0.1873,0,0,0.1477,0.1504,0.1531,0.1545,0.1571,0.1606,0.1624,0.1645,0.1697,0.1718,0.1722,0.1797,0.1827,0.1863,0.1854,0.1865,0.1903,0.1883,0.1867,0.1866,0.1865,0.194,0.1946,0.1875,0.1875,0.1876,0.1876,0,0.1495,0.1515,0.1526,0.1549,0.1591,0.1625,0.1623,0.168,0.1702,0.1723,0.1774,0.1794,0.1843,0.1881,0.1905,0.1877,0.1941,0.1886,0.1857,0.1875,0.1872,0.1871,0.1943,0.1948,0.1878,0.1878,0.1878,0,0.151,0.1541,0.1553,0.1593,0.1631,0.1653,0.1692,0.1718,0.1736,0.1793,0.1822,0.1856,0.1905,0.1925,0.1934,0.1946,0.1973,0.1954,0.1949,0.1962,0.1984,0.1981,0.1978,0.2019,0.2019,0.2019,0,0,0.1523,0.1539,0.1592,0.1604,0.1618,0.1677,0.1697,0.1731,0.1774,0.1791,0.1834,0.1875,0.1909,0.1923,0.1961,0.1966,0.2008,0.1969,0.1963,0.1957,0.1966,0.1987,0.1983,0.202,0.202,0.202,0,0,0.1538,0.1598,0.1617,0.1633,0.1667,0.1739,0.1751,0.1778,0.1812,0.1821,0.188,0.1893,0.191,0.1938,0.1944,0.1973,0.2002,0.2002,0.1953,0.1946,0.1939,0.1944,0.2006,0,0,0,0,0,0.1591,0.1587,0.1604,0.1614,0.1688,0.1726,0.1737,0.1793,0.1813,0.1813,0.1855,0.1894,0.1958,0.1965,0.1974,0.1971,0.2033,0.2031,0.2029,0.1969,0.196,0.1953,0,0,0,0,0,0,0.1595,0.1607,0.1605,0.1674,0.1692,0.1727,0.1778,0.1794,0.1815,0.1822,0.1885,0.1896,0.1944,0.1963,0.1971,0.1967,0.2004,0.2033,0.2031,0.2029,0.1966,0.1959,0.1953,0,0,0,0,0,0.1599,0.1609,0.1709,0.1675,0.1691,0.1763,0.1779,0.1792,0.1809,0.1879,0.1892,0.1848,0.1943,0.1953,0.1968,0.1962,0.1999,0.2001,0.2031,0.203,0.2028,0.1962,0,0,0,0,0,0,0.1602,0.1627,0.1714,0.1721,0.1679,0.1762,0.1776,0.179,0.1867,0.1879,0.1845,0.185,0.1942,0.195,0.1957,0.1958,0.1994,0.1997,0.1999,0.203,0.2029,0.2028,0,0,0,0,0,0,0.1622,0.1632,0.1717,0.1718,0.1726,0.1761,0.1773,0.18,0.1866,0.1829,0.1835,0.1846,0.1924,0.1948,0.1954,0.1993,0.1991,0.1994,0.1996,0.1997,0.2029,0.2028,0,0,0,0,0,0,0.1628,0.1637,0.1717,0.1723,0.173,0.1818,0.1786,0.1855,0.1877,0.1824,0.1879,0.188,0.192,0.1928,0.1951,0.1988,0.1992,0.1991,0.1993,0.1994,0.1995,0,0,0,0,0,0,0,0.1632,0.1555,0.1668,0.1727,0.1733,0.1788,0.1791,0.1793,0.1877,0.1878,0.1879,0.188,0.1975,0.1978,0.1982,0.1983,0,0,0.1991,0.1992,0,0,0,0,0,0,0,0,0.1553,0.1555,0.1668,0.167,0.1671,0.1789,0.1791,0.1792,0.1878,0.1878,0.1879,0.188,0.1976,0.1979,0.1981,0,0,0,0,0,0,0,0,0,0,0,0,0,0,0,0.1669,0.167,0,0.1789,0.179,0.1792,0.1878,0.1878,0.1879,0.1879,0.1977,0.1979,0.1981,0,0,0,0,0,0,0,0,0,0,0,0,0,0,0,0,0,0,0,0,0,0,0,0,0,0,0,0,0,0,0,0,0,0,0,0,0,0,0,0,0,0,0,0,0,0,0,0,0,0,0,0,0,0,0,0,0,0,0,0,0,0,0,0,0,0,0,0,0]}],[{"header":{"parameterUnit":"kt","parameterCategory":2,"dx":1,"dy":1,"la1":30.253999710083008,"la2":30.299108505249023,"lo1":-89.0895004272461,"lo2":-89.04439544677734,"nx":28,"ny":28,"refTime":"2022-10-29T21:00:00:Z","depth":"0","parameterNumber":3,"parameterNumberName":"V-component_of_CURRENTS"},"data":[-0.0175,-0.0047,-0.002,0.0313,0.0431,0.0733,0.0935,0.1314,0.1634,0.2219,0.2483,0.2587,0.212,0.0094,-0.1304,-0.1673,-0.2165,-0.22,-0.2493,-0.2235,-0.2225,-0.2215,-0.2241,-0.2328,-0.2329,-0.2982,-0.2989,-0.2994,-0.0295,-0.0255,-0.0188,-0.0077,0.0099,0.0048,0.0324,0.0561,0.1047,0.1388,0.1736,0.1767,0.1167,0.0422,-0.0582,-0.1173,-0.1489,-0.1548,-0.1809,-0.1907,-0.1359,-0.134,-0.1236,-0.1236,-0.1236,-0.1235,-0.1235,-0.1235,-0.049,-0.0458,-0.0458,-0.0398,-0.0334,-0.0158,-0.0021,0.0172,0.0457,0.0877,0.0906,0.1221,0.0751,0.0201,-0.0212,-0.0978,-0.1049,-0.124,-0.1412,-0.1523,-0.1622,-0.0895,-0.0815,-0.0816,-0.0818,-0.0818,-0.0819,0,-0.0603,-0.0644,-0.0681,-0.0631,-0.0609,-0.0572,-0.0498,-0.0366,-0.0313,-0.0108,0.0266,0.0393,0.0221,0.0033,-0.0404,-0.0629,-0.1395,-0.1135,-0.1461,-0.1614,-0.1662,-0.1738,-0.1152,-0.1188,-0.1191,-0.1194,-0.1195,-0.1197,-0.0663,-0.0723,-0.0826,-0.0804,-0.0844,-0.0892,-0.0862,-0.0938,-0.0817,-0.0654,-0.0489,-0.0465,-0.0301,-0.0506,-0.0837,-0.11,-0.139,-0.1211,-0.1316,-0.1523,-0.1656,-0.1769,-0.1859,-0.1233,-0.1228,-0.1225,-0.1222,0,-0.067,-0.0765,-0.0855,-0.0984,-0.101,-0.105,-0.1048,-0.1038,-0.1081,-0.0926,-0.0916,-0.094,-0.0922,-0.1134,-0.1286,-0.1434,-0.1632,-0.1507,-0.1337,-0.1281,-0.149,-0.163,-0.19,-0.2015,-0.1466,-0.1463,-0.146,0,-0.0686,-0.0763,-0.0872,-0.0928,-0.1005,-0.1099,-0.1157,-0.1224,-0.1247,-0.1138,-0.1326,-0.1199,-0.1452,-0.1457,-0.1582,-0.156,-0.1659,-0.1592,-0.1553,-0.1477,-0.1449,-0.1689,-0.1828,-0.1815,-0.1815,-0.1816,-0.1816,0,-0.0649,-0.0758,-0.0857,-0.0897,-0.1017,-0.1079,-0.1132,-0.1224,-0.121,-0.1344,-0.1281,-0.1494,-0.1425,-0.1604,-0.1552,-0.1587,-0.1617,-0.1659,-0.1548,-0.1531,-0.1465,-0.1435,-0.1825,-0.1816,-0.1816,-0.1816,-0.1816,0,-0.0636,-0.0697,-0.0799,-0.0928,-0.0951,-0.1001,-0.1125,-0.1176,-0.127,-0.1286,-0.1379,-0.1381,-0.1476,-0.1447,-0.1565,-0.1524,-0.1548,-0.1529,-0.1529,-0.1375,-0.1257,-0.1177,-0.1243,-0.152,-0.1427,-0.1425,-0.1423,0,-0.0618,-0.0697,-0.0727,-0.0823,-0.0878,-0.0918,-0.0988,-0.1052,-0.1087,-0.1154,-0.1205,-0.1241,-0.1249,-0.1251,-0.1354,-0.1324,-0.141,-0.1349,-0.1387,-0.1387,-0.1243,-0.1333,-0.1244,-0.122,-0.1396,-0.1399,-0.1401,0,-0.0592,-0.0672,-0.0677,-0.0733,-0.0774,-0.0797,-0.0868,-0.0941,-0.0996,-0.102,-0.1106,-0.1161,-0.1168,-0.1194,-0.1188,-0.1253,-0.135,-0.1216,-0.1218,-0.1211,-0.1476,-0.131,-0.1311,-0.1382,-0.1387,-0.1391,-0.138,0,-0.0638,-0.067,-0.0674,-0.0707,-0.0728,-0.0753,-0.0779,-0.0809,-0.082,-0.0844,-0.0922,-0.0923,-0.0989,-0.0983,-0.0972,-0.1106,-0.1055,-0.1051,-0.1042,-0.1126,-0.1096,-0.1113,-0.0889,-0.0887,-0.0886,-0.0885,0,0,-0.0623,-0.0644,-0.0626,-0.0645,-0.0674,-0.0655,-0.0691,-0.0707,-0.0716,-0.0754,-0.0715,-0.0795,-0.0792,-0.0899,-0.092,-0.0896,-0.0908,-0.0922,-0.106,-0.1079,-0.1097,-0.1076,-0.1094,-0.0883,-0.0882,-0.0882,-0.0881,0,-0.0628,-0.0621,-0.0625,-0.0636,-0.0638,-0.0647,-0.0647,-0.0647,-0.0664,-0.0692,-0.0693,-0.0724,-0.0742,-0.0789,-0.081,-0.0869,-0.0868,-0.0862,-0.0961,-0.1045,-0.1065,-0.1084,-0.1068,-0.1084,-0.0878,-0.0878,-0.0878,0,-0.0627,-0.0623,-0.0621,-0.0617,-0.0616,-0.0638,-0.0611,-0.0611,-0.0646,-0.0615,-0.0659,-0.0655,-0.0673,-0.0721,-0.0737,-0.0725,-0.0836,-0.0782,-0.0789,-0.0827,-0.0913,-0.0936,-0.0957,-0.0701,-0.07,-0.07,0,0,-0.0629,-0.0626,-0.062,-0.0615,-0.0615,-0.0611,-0.0611,-0.061,-0.0611,-0.0613,-0.0621,-0.0635,-0.0662,-0.0678,-0.0689,-0.0727,-0.0742,-0.0763,-0.0772,-0.0779,-0.082,-0.0908,-0.0929,-0.0699,-0.0699,-0.0699,0,0,-0.0626,-0.0618,-0.0616,-0.061,-0.061,-0.0605,-0.0607,-0.0603,-0.061,-0.061,-0.0613,-0.0615,-0.0647,-0.0643,-0.0625,-0.0705,-0.0666,-0.067,-0.0724,-0.0734,-0.0742,-0.0791,-0.0624,0,0,0,0,0,-0.0621,-0.0618,-0.0617,-0.0615,-0.0607,-0.0605,-0.0606,-0.0605,-0.0598,-0.0603,-0.0607,-0.0606,-0.0642,-0.0626,-0.0628,-0.068,-0.0682,-0.0685,-0.0688,-0.0765,-0.0775,-0.0785,0,0,0,0,0,0,-0.062,-0.0616,-0.0617,-0.061,-0.0608,-0.0605,-0.06,-0.06,-0.0598,-0.0598,-0.0605,-0.0607,-0.0612,-0.0625,-0.0627,-0.0677,-0.0623,-0.0684,-0.0686,-0.0688,-0.0768,-0.0777,-0.0785,0,0,0,0,0,-0.0619,-0.0616,-0.06,-0.0611,-0.0609,-0.0607,-0.06,-0.06,-0.0599,-0.0606,-0.0607,-0.0597,-0.0612,-0.0614,-0.0626,-0.0677,-0.0622,-0.0622,-0.0685,-0.0687,-0.0689,-0.0773,0,0,0,0,0,0,-0.0618,-0.0622,-0.0601,-0.0601,-0.0608,-0.0607,-0.0606,-0.0599,-0.0608,-0.0608,-0.0598,-0.0598,-0.0612,-0.0614,-0.0615,-0.0678,-0.062,-0.0621,-0.0622,-0.0687,-0.0688,-0.069,0,0,0,0,0,0,-0.0623,-0.0622,-0.0601,-0.0597,-0.0597,-0.0608,-0.0607,-0.0616,-0.0608,-0.0601,-0.06,-0.0598,-0.061,-0.0614,-0.0615,-0.0629,-0.0619,-0.062,-0.0621,-0.0621,-0.0688,-0.0689,0,0,0,0,0,0,-0.0623,-0.0622,-0.0597,-0.0597,-0.0597,-0.0598,-0.0617,-0.061,-0.06,-0.0601,-0.06,-0.0599,-0.061,-0.0611,-0.0614,-0.0628,-0.0629,-0.062,-0.062,-0.062,-0.0621,0,0,0,0,0,0,0,-0.0623,-0.0627,-0.0598,-0.0597,-0.0597,-0.06,-0.0601,-0.0601,-0.06,-0.06,-0.06,-0.06,-0.0615,-0.0616,-0.0617,-0.0628,0,0,-0.0619,-0.062,0,0,0,0,0,0,0,0,-0.0628,-0.0628,-0.0598,-0.0598,-0.0598,-0.06,-0.0601,-0.0601,-0.06,-0.06,-0.06,-0.06,-0.0615,-0.0616,-0.0617,0,0,0,0,0,0,0,0,0,0,0,0,0,0,0,-0.0598,-0.0598,0,-0.06,-0.0601,-0.0601,-0.06,-0.06,-0.06,-0.06,-0.0615,-0.0616,-0.0617,0,0,0,0,0,0,0,0,0,0,0,0,0,0,0,0,0,0,0,0,0,0,0,0,0,0,0,0,0,0,0,0,0,0,0,0,0,0,0,0,0,0,0,0,0,0,0,0,0,0,0,0,0,0,0,0,0,0,0,0,0,0,0,0,0,0,0,0,0]}]],[[{"header":{"parameterUnit":"kt","parameterCategory":2,"dx":1,"dy":1,"la1":30.253999710083008,"la2":30.299108505249023,"lo1":-89.0895004272461,"lo2":-89.04439544677734,"nx":28,"ny":28,"refTime":"2022-10-29T21:00:00:Z","depth":"2","parameterNumber":2,"parameterNumberName":"U-component_of_CURRENTS"},"data":[0.1278,0.1366,0.1368,0.1568,0.166,0.1796,0.1897,0.2045,0.226,0.2522,0.2708,0.3044,0.3247,0.2924,0.2903,0.2798,0.2514,0.2692,0.3353,0.2605,0.2566,0.2421,0.2364,0,0,0,0,0,0.118,0.1245,0.1333,0.1425,0.1565,0.1582,0.18,0.1875,0.2146,0.255,0.2883,0.2905,0.3104,0.3214,0.3122,0.3154,0.2754,0.3029,0.2409,0.2381,0.235,0.2317,0.2665,0.2661,0.2657,0.2654,0,0,0.1067,0.1118,0.1133,0.1205,0.1339,0.1493,0.1566,0.1768,0.2025,0.2373,0.2702,0.3044,0.3181,0.341,0.3375,0.3266,0.3325,0.3002,0.2959,0.2916,0.2946,0.3074,0.3445,0.3447,0.3449,0.3451,0.3453,0,0.0931,0.0956,0.096,0.1001,0.1102,0.1204,0.1331,0.1466,0.1644,0.1879,0.2361,0.2636,0.3111,0.3173,0.3387,0.3302,0.2661,0.2868,0.277,0.194,0.2036,0.208,0.2057,0.2202,0.2197,0.2194,0.2191,0.2189,0.0877,0.0847,0.0815,0.0878,0.0861,0.0905,0.1003,0.1039,0.1191,0.1563,0.1755,0.2142,0.246,0.2828,0.2779,0.2827,0.2668,0.2737,0.2379,0.2318,0.2376,0.235,0.2329,0.214,0.2146,0.2151,0.2155,0,0.0872,0.0807,0.0782,0.0708,0.0705,0.0746,0.0867,0.096,0.101,0.1261,0.13,0.1485,0.1793,0.1824,0.1891,0.1879,0.199,0.2159,0.2023,0.2095,0.2243,0.2241,0.249,0.2508,0.2523,0.2536,0.2547,0,0.0835,0.0819,0.0742,0.0709,0.0705,0.0704,0.075,0.0755,0.0845,0.1032,0.0933,0.1148,0.1037,0.1261,0.122,0.1594,0.1387,0.1646,0.1735,0.15,0.1528,0.1196,0.12,0.1141,0.1139,0.1137,0.1136,0,0.0884,0.0824,0.0754,0.0743,0.0719,0.071,0.0729,0.0761,0.0849,0.0808,0.0932,0.084,0.1027,0.0924,0.1202,0.1053,0.1354,0.116,0.1616,0.1654,0.1498,0.153,0.1134,0.1133,0.1133,0.1132,0.1131,0,0.0904,0.0846,0.0787,0.0755,0.076,0.0766,0.0767,0.0788,0.0814,0.0838,0.0831,0.0892,0.0926,0.0947,0.1021,0.0994,0.1066,0.1131,0.114,0.1566,0.1683,0.167,0.1718,0.1342,0.1342,0.1341,0.1341,0,0.0897,0.0854,0.0861,0.0836,0.0811,0.0842,0.0841,0.0863,0.089,0.0916,0.0942,0.0994,0.1023,0.1078,0.1043,0.1161,0.1154,0.112,0.1224,0.1229,0.163,0.1699,0.1485,0.1703,0.134,0.134,0.134,0,0.0933,0.0908,0.0915,0.0896,0.0916,0.0945,0.0928,0.0931,0.0939,0.0982,0.0978,0.1039,0.1086,0.1106,0.1164,0.1146,0.1174,0.1189,0.1189,0.1288,0.119,0.1646,0.1692,0.1116,0.1113,0.1111,0.1339,0,0.0912,0.0907,0.0915,0.0943,0.0965,0.0964,0.1011,0.1027,0.1064,0.1097,0.1109,0.1184,0.1218,0.1252,0.1302,0.1261,0.1322,0.1298,0.1304,0.1258,0.138,0.138,0.1388,0.1389,0.1389,0.139,0,0,0.0919,0.0924,0.0991,0.1,0.1005,0.1074,0.1068,0.11,0.1165,0.1164,0.1215,0.1275,0.1337,0.1325,0.134,0.1372,0.1394,0.1356,0.1295,0.1285,0.1275,0.1385,0.1384,0.1391,0.1392,0.1392,0.1392,0,0.0926,0.0963,0.0982,0.1009,0.1061,0.1092,0.1097,0.1168,0.1189,0.1217,0.1268,0.1307,0.1358,0.1384,0.1403,0.1384,0.1426,0.1402,0.1334,0.1304,0.1293,0.1282,0.1388,0.1387,0.1394,0.1394,0.1394,0,0.0937,0.0974,0.1,0.1053,0.1099,0.1117,0.1173,0.1212,0.1216,0.1288,0.1309,0.136,0.1401,0.142,0.1431,0.1438,0.1447,0.1448,0.1444,0.1411,0.1379,0.1367,0.1356,0.1496,0.1496,0.1496,0,0,0.0942,0.0974,0.104,0.1064,0.1085,0.1154,0.118,0.1219,0.1268,0.1289,0.1333,0.1372,0.1402,0.1415,0.1449,0.1454,0.1472,0.1458,0.1454,0.1449,0.1415,0.1382,0.137,0.1497,0.1497,0.1497,0,0,0.0956,0.1035,0.1061,0.109,0.1135,0.1214,0.1231,0.1265,0.1306,0.1315,0.1368,0.138,0.1403,0.1425,0.1427,0.1456,0.1478,0.1478,0.1438,0.1432,0.1428,0.138,0.1474,0,0,0,0,0,0.1018,0.1023,0.1045,0.1059,0.1149,0.1198,0.121,0.1273,0.1298,0.1304,0.1346,0.1377,0.144,0.1443,0.1451,0.145,0.1504,0.1503,0.1502,0.1453,0.1447,0.1442,0,0,0,0,0,0,0.1024,0.1041,0.1045,0.1121,0.1143,0.1198,0.1247,0.1264,0.1298,0.1307,0.1369,0.1379,0.1417,0.1442,0.1449,0.1446,0.1472,0.1504,0.1503,0.1502,0.1451,0.1446,0.1442,0,0,0,0,0,0.1029,0.1043,0.117,0.1122,0.114,0.1222,0.1247,0.1262,0.1292,0.1352,0.1365,0.1337,0.1416,0.1425,0.1446,0.1442,0.1468,0.147,0.1503,0.1502,0.1501,0.1449,0,0,0,0,0,0,0.1033,0.1056,0.1175,0.1183,0.1129,0.1221,0.1237,0.126,0.1336,0.1349,0.1322,0.1327,0.1414,0.1422,0.1428,0.1439,0.1464,0.1467,0.1468,0.1502,0.1502,0.1501,0,0,0,0,0,0,0.105,0.1063,0.1179,0.1184,0.1193,0.1219,0.1234,0.1254,0.1335,0.1301,0.1309,0.1323,0.1397,0.1419,0.1425,0.1454,0.1462,0.1464,0.1465,0.1466,0.1502,0.1501,0,0,0,0,0,0,0.1056,0.1067,0.1182,0.1189,0.1197,0.1292,0.1237,0.1321,0.1355,0.1296,0.1358,0.1359,0.1393,0.14,0.1422,0.1449,0.1453,0.1462,0.1463,0.1464,0.1465,0,0,0,0,0,0,0,0.1062,0.0972,0.1128,0.1194,0.1201,0.1257,0.1259,0.1262,0.1355,0.1356,0.1357,0.1358,0.1449,0.1451,0.1454,0.1445,0,0,0.1461,0.1463,0,0,0,0,0,0,0,0,0.0969,0.0971,0.1128,0.113,0.1131,0.1258,0.1259,0.1261,0.1355,0.1356,0.1357,0.1358,0.1449,0.1451,0.1453,0,0,0,0,0,0,0,0,0,0,0,0,0,0,0,0.1128,0.113,0,0.1258,0.1259,0.1261,0.1355,0.1356,0.1357,0.1358,0.145,0.1452,0.1453,0,0,0,0,0,0,0,0,0,0,0,0,0,0,0,0,0,0,0,0,0,0,0,0,0,0,0,0,0,0,0,0,0,0,0,0,0,0,0,0,0,0,0,0,0,0,0,0,0,0,0,0,0,0,0,0,0,0,0,0,0,0,0,0,0,0,0,0,0]}],[{"header":{"parameterUnit":"kt","parameterCategory":2,"dx":1,"dy":1,"la1":30.253999710083008,"la2":30.299108505249023,"lo1":-89.0895004272461,"lo2":-89.04439544677734,"nx":28,"ny":28,"refTime":"2022-10-29T21:00:00:Z","depth":"2","parameterNumber":3,"parameterNumberName":"V-component_of_CURRENTS"},"data":[-0.0033,0.0075,0.0135,0.0401,0.0518,0.0788,0.098,0.1291,0.153,0.1865,0.1954,0.184,0.1223,0.0698,0.0055,-0.0346,-0.052,-0.0431,-0.0401,-0.0406,-0.0412,-0.0918,-0.0823,0,0,0,0,0,-0.0078,-0.0045,0.0027,0.0148,0.0283,0.0292,0.0546,0.0741,0.1143,0.1355,0.159,0.1331,0.0978,0.0463,-0.0262,-0.0692,-0.0796,-0.0835,-0.0894,-0.0905,-0.0917,-0.0852,-0.0792,-0.0793,-0.0794,-0.0795,0,0,-0.019,-0.0165,-0.01,-0.0021,0.0022,0.0197,0.0313,0.0489,0.0698,0.1,0.1015,0.1172,0.072,0.0235,-0.0199,-0.0722,-0.0723,-0.0916,-0.0925,-0.0935,-0.0866,-0.0843,-0.081,-0.0811,-0.0811,-0.0812,-0.0812,0,-0.0189,-0.0239,-0.0195,-0.0087,-0.0085,-0.0034,0.0026,0.0126,0.0161,0.0296,0.0572,0.0644,0.0365,0.0136,-0.034,-0.0538,-0.0967,-0.0966,-0.1071,-0.101,-0.0995,-0.0978,-0.0979,-0.0999,-0.1001,-0.1002,-0.1003,-0.1004,-0.0242,-0.022,-0.0169,-0.015,-0.0145,-0.0162,-0.0156,-0.02,-0.0116,-0.0044,0.0054,-0.0048,0.0063,-0.0241,-0.0569,-0.0848,-0.0934,-0.1004,-0.1024,-0.1114,-0.1097,-0.1092,-0.1088,-0.1022,-0.102,-0.1018,-0.1016,0,-0.0263,-0.0253,-0.0199,-0.0139,-0.0129,-0.0156,-0.0192,-0.0177,-0.0241,-0.0175,-0.0212,-0.0263,-0.0351,-0.0591,-0.0798,-0.0941,-0.1081,-0.1107,-0.106,-0.1037,-0.1105,-0.1097,-0.1145,-0.1143,-0.1141,-0.1139,-0.1137,0,-0.0275,-0.0241,-0.0202,-0.0176,-0.0132,-0.0186,-0.0197,-0.022,-0.0268,-0.0228,-0.0391,-0.033,-0.0622,-0.0719,-0.0897,-0.1024,-0.1054,-0.1132,-0.1119,-0.1079,-0.1067,-0.1139,-0.1129,-0.1218,-0.1217,-0.1216,-0.1215,0,-0.0327,-0.028,-0.0226,-0.0222,-0.0216,-0.0213,-0.025,-0.03,-0.0317,-0.0394,-0.0379,-0.052,-0.0621,-0.0753,-0.0954,-0.0964,-0.1099,-0.111,-0.1109,-0.1104,-0.1057,-0.1044,-0.1214,-0.1214,-0.1214,-0.1214,-0.1214,0,-0.0394,-0.0331,-0.0303,-0.0253,-0.0252,-0.0295,-0.0259,-0.0323,-0.0389,-0.0401,-0.0466,-0.0545,-0.0711,-0.0781,-0.096,-0.0918,-0.102,-0.109,-0.1093,-0.0986,-0.0941,-0.0976,-0.1023,-0.1116,-0.1115,-0.1114,-0.1113,0,-0.0384,-0.0356,-0.0388,-0.037,-0.0339,-0.0371,-0.0412,-0.0443,-0.0465,-0.0491,-0.0596,-0.0663,-0.077,-0.0817,-0.0895,-0.0982,-0.1053,-0.101,-0.1018,-0.102,-0.0933,-0.0983,-0.0937,-0.101,-0.1099,-0.11,-0.1101,0,-0.0409,-0.0421,-0.0425,-0.04,-0.0442,-0.0441,-0.048,-0.0486,-0.0482,-0.0576,-0.0568,-0.0723,-0.0765,-0.0797,-0.0856,-0.0923,-0.1033,-0.0935,-0.0934,-0.0978,-0.1071,-0.0977,-0.0978,-0.099,-0.0991,-0.0992,-0.109,0,-0.0422,-0.0422,-0.0426,-0.0457,-0.0471,-0.0464,-0.052,-0.0532,-0.0557,-0.0592,-0.0627,-0.0711,-0.0741,-0.079,-0.0841,-0.0907,-0.0891,-0.0857,-0.0841,-0.0884,-0.0921,-0.093,-0.0806,-0.0805,-0.0804,-0.0803,0,0,-0.0412,-0.0413,-0.0446,-0.046,-0.0452,-0.0492,-0.0488,-0.0535,-0.0566,-0.0555,-0.0591,-0.0646,-0.0704,-0.0746,-0.0805,-0.0803,-0.0801,-0.0809,-0.0858,-0.0865,-0.087,-0.0908,-0.0918,-0.0801,-0.0801,-0.08,-0.08,0,-0.0413,-0.0426,-0.044,-0.0459,-0.0477,-0.0491,-0.0495,-0.0521,-0.0536,-0.0573,-0.0584,-0.0632,-0.0667,-0.071,-0.0732,-0.0782,-0.0778,-0.0784,-0.0836,-0.0849,-0.0857,-0.0863,-0.0903,-0.0912,-0.0798,-0.0798,-0.0798,0,-0.0414,-0.0421,-0.0437,-0.0456,-0.0471,-0.0493,-0.0491,-0.0504,-0.0527,-0.0529,-0.0564,-0.0585,-0.0609,-0.0657,-0.0675,-0.0667,-0.0753,-0.0724,-0.0729,-0.0733,-0.0745,-0.0753,-0.0761,-0.066,-0.066,-0.066,0,0,-0.0411,-0.0426,-0.045,-0.0459,-0.0468,-0.0486,-0.0494,-0.0504,-0.0519,-0.0526,-0.0546,-0.0568,-0.0598,-0.0618,-0.0635,-0.0675,-0.0676,-0.0709,-0.0716,-0.0721,-0.0729,-0.0741,-0.075,-0.0659,-0.0659,-0.0659,0,0,-0.0411,-0.0439,-0.0451,-0.0461,-0.048,-0.0498,-0.0503,-0.0511,-0.0527,-0.0527,-0.0543,-0.0549,-0.0585,-0.0588,-0.0572,-0.0652,-0.0621,-0.0625,-0.0665,-0.0673,-0.0679,-0.0686,-0.0581,0,0,0,0,0,-0.0434,-0.0436,-0.0447,-0.0452,-0.0478,-0.0495,-0.0499,-0.0511,-0.0511,-0.0518,-0.0531,-0.0538,-0.0588,-0.0574,-0.0579,-0.0627,-0.0647,-0.0649,-0.0651,-0.071,-0.0719,-0.0726,0,0,0,0,0,0,-0.0436,-0.0441,-0.0447,-0.0464,-0.047,-0.0495,-0.0497,-0.0501,-0.051,-0.0512,-0.0535,-0.0539,-0.0551,-0.0573,-0.0577,-0.0623,-0.0579,-0.0647,-0.0649,-0.0651,-0.0713,-0.072,-0.0726,0,0,0,0,0,-0.0437,-0.0441,-0.0481,-0.0464,-0.047,-0.0487,-0.0497,-0.05,-0.0509,-0.0529,-0.0533,-0.0518,-0.0551,-0.0556,-0.0575,-0.0621,-0.0576,-0.0578,-0.0649,-0.065,-0.0651,-0.0717,0,0,0,0,0,0,-0.0438,-0.0445,-0.0482,-0.0484,-0.0463,-0.0486,-0.0491,-0.05,-0.0526,-0.053,-0.0512,-0.0513,-0.0551,-0.0555,-0.0558,-0.0621,-0.0574,-0.0575,-0.0576,-0.065,-0.0651,-0.0652,0,0,0,0,0,0,-0.0443,-0.0447,-0.0483,-0.0481,-0.0482,-0.0485,-0.0489,-0.0506,-0.0527,-0.0509,-0.051,-0.0512,-0.0546,-0.0554,-0.0557,-0.0582,-0.0572,-0.0574,-0.0575,-0.0575,-0.0651,-0.0652,0,0,0,0,0,0,-0.0445,-0.0448,-0.048,-0.0482,-0.0483,-0.0507,-0.0501,-0.0528,-0.0521,-0.0507,-0.0521,-0.0521,-0.0545,-0.0549,-0.0556,-0.058,-0.0582,-0.0572,-0.0573,-0.0574,-0.0574,0,0,0,0,0,0,0,-0.0446,-0.0421,-0.047,-0.0483,-0.0484,-0.0502,-0.0503,-0.0503,-0.0521,-0.0521,-0.0521,-0.0521,-0.0563,-0.0565,-0.0567,-0.0578,0,0,-0.0572,-0.0573,0,0,0,0,0,0,0,0,-0.042,-0.0421,-0.047,-0.047,-0.047,-0.0502,-0.0503,-0.0503,-0.0521,-0.0521,-0.0521,-0.0521,-0.0564,-0.0565,-0.0566,0,0,0,0,0,0,0,0,0,0,0,0,0,0,0,-0.047,-0.047,0,-0.0502,-0.0503,-0.0503,-0.0521,-0.0521,-0.0521,-0.0521,-0.0564,-0.0565,-0.0566,0,0,0,0,0,0,0,0,0,0,0,0,0,0,0,0,0,0,0,0,0,0,0,0,0,0,0,0,0,0,0,0,0,0,0,0,0,0,0,0,0,0,0,0,0,0,0,0,0,0,0,0,0,0,0,0,0,0,0,0,0,0,0,0,0,0,0,0,0]}]],[[{"header":{"parameterUnit":"kt","parameterCategory":2,"dx":1,"dy":1,"la1":30.253999710083008,"la2":30.299108505249023,"lo1":-89.0895004272461,"lo2":-89.04439544677734,"nx":28,"ny":28,"refTime":"2022-10-29T21:00:00:Z","depth":"4","parameterNumber":2,"parameterNumberName":"U-component_of_CURRENTS"},"data":[0.0378,0.0418,0.0488,0.0599,0.0677,0.078,0.0868,0.0966,0.1054,0.1207,0.1298,0.1407,0.1554,0.1612,0.1711,0.1729,0.1753,0.1884,0.1882,0.1972,0.1983,0.1993,0.1861,0,0,0,0,0,0.0398,0.0442,0.0497,0.0584,0.0661,0.0738,0.0849,0.0909,0.1066,0.1214,0.1295,0.1462,0.161,0.1689,0.1718,0.1763,0.1883,0.1785,0.1854,0.1979,0.1991,0.1858,0,0,0,0,0,0,0.0436,0.0449,0.051,0.0583,0.0653,0.0754,0.0797,0.0948,0.105,0.1299,0.1364,0.1572,0.1724,0.1794,0.1888,0.1944,0.1915,0.1892,0.1908,0.192,0.1801,0.1672,0.172,0,0,0,0,0,0.0475,0.0505,0.0539,0.0608,0.0665,0.0744,0.0844,0.09,0.1084,0.1191,0.1408,0.1533,0.1705,0.1847,0.1943,0.2019,0.2108,0.21,0.2106,0.2015,0.1934,0.189,0.1876,0.2036,0.2038,0.2039,0.2039,0,0.0524,0.0536,0.0617,0.0648,0.0686,0.0747,0.0807,0.093,0.1024,0.1253,0.1339,0.1551,0.1698,0.1881,0.1994,0.2117,0.2097,0.2132,0.2035,0.1951,0.1908,0.189,0.1873,0.2049,0.2048,0.2047,0.2047,0,0.055,0.0602,0.0641,0.0721,0.0746,0.0773,0.089,0.0952,0.1076,0.1231,0.1308,0.1527,0.1715,0.1854,0.2055,0.2047,0.2135,0.2128,0.2153,0.2117,0.1903,0.1881,0.2065,0.2061,0.2058,0.2056,0.2054,0,0.0611,0.0637,0.0713,0.0727,0.077,0.084,0.0908,0.0983,0.1111,0.1221,0.137,0.1485,0.1685,0.183,0.1913,0.1999,0.2111,0.1974,0.1948,0.1971,0.1951,0.1954,0.1929,0.216,0.2159,0.2158,0.2157,0,0.0631,0.0703,0.0739,0.0763,0.0844,0.0881,0.0928,0.1032,0.1096,0.1257,0.1335,0.1506,0.1604,0.1742,0.1854,0.1824,0.2052,0.1989,0.1908,0.1896,0.1938,0.1915,0.2156,0.2156,0.2156,0.2155,0.2155,0,0.0681,0.0714,0.0761,0.083,0.0846,0.0879,0.0967,0.102,0.1141,0.1203,0.1322,0.1378,0.1538,0.1516,0.1724,0.1667,0.1732,0.1763,0.1767,0.1619,0.1501,0.1588,0.1752,0.1749,0.1745,0.1742,0.174,0,0.0685,0.0727,0.0771,0.0819,0.0843,0.0899,0.0951,0.1016,0.1075,0.1149,0.122,0.1283,0.1297,0.1335,0.144,0.149,0.159,0.148,0.1599,0.1602,0.1477,0.1603,0.1557,0.1696,0.1701,0.1705,0.1708,0,0.0676,0.0745,0.075,0.0774,0.0835,0.0847,0.0919,0.0979,0.1022,0.108,0.1154,0.1208,0.1243,0.1255,0.1256,0.1345,0.1514,0.1347,0.1349,0.1413,0.1713,0.1565,0.1576,0.153,0.1536,0.154,0.1677,0,0.0703,0.0732,0.0747,0.0783,0.081,0.0836,0.087,0.0908,0.0939,0.0967,0.1039,0.1042,0.1087,0.1085,0.1084,0.1214,0.1201,0.1167,0.1152,0.1244,0.1281,0.1306,0.0987,0.0985,0.0983,0.0982,0,0,0.0684,0.0707,0.0722,0.0744,0.0765,0.0783,0.0808,0.0834,0.0856,0.0888,0.0882,0.0929,0.0924,0.0986,0.1024,0.099,0.1038,0.1024,0.1171,0.1192,0.1211,0.1254,0.1279,0.0979,0.0978,0.0978,0.0977,0,0.0678,0.0698,0.0714,0.0731,0.0756,0.0763,0.0779,0.0793,0.0821,0.085,0.0845,0.0879,0.088,0.0901,0.0906,0.0962,0.0981,0.0958,0.1065,0.1153,0.1176,0.1196,0.1243,0.1267,0.0973,0.0974,0.0974,0,0.0666,0.0675,0.0684,0.0702,0.0712,0.0732,0.0726,0.0752,0.0781,0.0754,0.08,0.0797,0.0788,0.0823,0.0838,0.0822,0.0941,0.0865,0.0873,0.091,0.1,0.1025,0.1048,0.0767,0.0767,0.0767,0,0,0.066,0.0677,0.0682,0.0698,0.0707,0.0714,0.0725,0.0737,0.0746,0.0758,0.0763,0.0768,0.0778,0.0793,0.0787,0.0814,0.0842,0.0844,0.0854,0.0862,0.0903,0.0994,0.1018,0.0766,0.0765,0.0765,0,0,0.0653,0.0662,0.0668,0.0684,0.0697,0.0693,0.0712,0.0721,0.074,0.0752,0.0741,0.0742,0.0777,0.0759,0.0745,0.0799,0.0753,0.0755,0.083,0.0841,0.085,0.0904,0.0726,0,0,0,0,0,0.0643,0.0657,0.0662,0.0665,0.0675,0.0685,0.0687,0.0704,0.0716,0.0736,0.0742,0.0734,0.0753,0.074,0.0738,0.0787,0.0751,0.0753,0.0756,0.0856,0.0868,0.0879,0,0,0,0,0,0,0.0644,0.0646,0.0662,0.0656,0.0659,0.0684,0.0682,0.0686,0.0715,0.072,0.0731,0.0732,0.072,0.074,0.0739,0.0786,0.0726,0.0752,0.0754,0.0756,0.086,0.087,0.0879,0,0,0,0,0,0.0645,0.0647,0.0663,0.0656,0.0658,0.0679,0.0683,0.0687,0.0718,0.0704,0.0708,0.0736,0.0719,0.072,0.0739,0.0788,0.0727,0.0727,0.0753,0.0755,0.0757,0.0865,0,0,0,0,0,0,0.0645,0.0646,0.0663,0.0664,0.0668,0.0679,0.0683,0.0687,0.0701,0.0704,0.0706,0.0709,0.0718,0.0719,0.0719,0.0791,0.0728,0.0728,0.0727,0.0755,0.0756,0.0757,0,0,0,0,0,0,0.0645,0.0646,0.0664,0.0679,0.0681,0.068,0.0683,0.0673,0.0701,0.0701,0.0704,0.0707,0.072,0.0718,0.0718,0.07,0.0729,0.0728,0.0728,0.0728,0.0756,0.0757,0,0,0,0,0,0,0.0645,0.0647,0.0678,0.068,0.0683,0.0693,0.0671,0.0682,0.0711,0.07,0.0715,0.0716,0.0719,0.0719,0.0717,0.0699,0.07,0.0729,0.0729,0.0728,0.0728,0,0,0,0,0,0,0,0.0646,0.0636,0.066,0.0682,0.0684,0.0672,0.0673,0.0673,0.0711,0.0713,0.0714,0.0716,0.0732,0.0732,0.0731,0.0698,0,0,0.0729,0.0729,0,0,0,0,0,0,0,0,0.0636,0.0636,0.066,0.066,0.066,0.0672,0.0673,0.0673,0.0712,0.0713,0.0714,0.0715,0.0732,0.0732,0.0731,0,0,0,0,0,0,0,0,0,0,0,0,0,0,0,0.066,0.066,0,0.0672,0.0673,0.0673,0.0712,0.0713,0.0714,0.0715,0.0732,0.0732,0.0731,0,0,0,0,0,0,0,0,0,0,0,0,0,0,0,0,0,0,0,0,0,0,0,0,0,0,0,0,0,0,0,0,0,0,0,0,0,0,0,0,0,0,0,0,0,0,0,0,0,0,0,0,0,0,0,0,0,0,0,0,0,0,0,0,0,0,0,0,0]}],[{"header":{"parameterUnit":"kt","parameterCategory":2,"dx":1,"dy":1,"la1":30.253999710083008,"la2":30.299108505249023,"lo1":-89.0895004272461,"lo2":-89.04439544677734,"nx":28,"ny":28,"refTime":"2022-10-29T21:00:00:Z","depth":"4","parameterNumber":3,"parameterNumberName":"V-component_of_CURRENTS"},"data":[0.0642,0.0689,0.0714,0.0744,0.0792,0.0875,0.0933,0.0968,0.0942,0.0948,0.0826,0.0769,0.0539,0.0668,0.0292,0.0245,0.0312,-0.0046,-0.0051,0.0123,0.0143,0.0162,0.0175,0,0,0,0,0,0.0669,0.0685,0.0744,0.0811,0.0886,0.0934,0.1009,0.1057,0.1083,0.1002,0.1013,0.0835,0.0576,0.048,0.0305,0.0272,0.0197,0.0059,0.0211,0.0136,0.0158,0.0163,0,0,0,0,0,0,0.0709,0.0739,0.0807,0.0857,0.0934,0.0982,0.1036,0.1048,0.107,0.1065,0.0996,0.0851,0.0787,0.0542,0.0394,0.0253,0.0227,0.0231,0.0247,0.0268,0.0281,0.0259,0.0066,0,0,0,0,0,0.0741,0.0777,0.0842,0.0913,0.097,0.1042,0.1107,0.1113,0.1173,0.1194,0.1091,0.0961,0.076,0.0619,0.0456,0.0333,0.0428,0.0302,0.0314,0.0371,0.0355,0.0297,0.0309,0.0244,0.0247,0.0249,0.025,0,0.0756,0.0797,0.0914,0.0954,0.1004,0.1083,0.1129,0.1213,0.1239,0.122,0.1205,0.1072,0.1026,0.0722,0.0633,0.0454,0.0412,0.0361,0.0421,0.0393,0.0326,0.0334,0.034,0.0268,0.0267,0.0265,0.0264,0,0.0758,0.0827,0.0912,0.1025,0.1058,0.1111,0.1196,0.1238,0.1285,0.1293,0.1299,0.1274,0.1113,0.1033,0.0876,0.0784,0.0628,0.0528,0.0734,0.0667,0.0373,0.0372,0.0298,0.0291,0.0286,0.0281,0.0277,0,0.0782,0.0842,0.0939,0.0976,0.1063,0.1127,0.1204,0.1258,0.1311,0.1323,0.1362,0.132,0.1269,0.1161,0.1058,0.0819,0.0905,0.0655,0.0578,0.0783,0.078,0.0697,0.0684,0.0818,0.0819,0.082,0.0821,0,0.0754,0.0857,0.0937,0.0966,0.1061,0.1112,0.1159,0.1218,0.1245,0.1314,0.1299,0.1334,0.1262,0.1211,0.1014,0.1023,0.0874,0.085,0.0619,0.0604,0.0697,0.0682,0.0822,0.0822,0.0822,0.0822,0.0823,0,0.0756,0.0808,0.0897,0.0996,0.1013,0.1055,0.1133,0.1175,0.1226,0.1229,0.1259,0.1207,0.1209,0.1126,0.1033,0.1039,0.0935,0.0842,0.0834,0.0604,0.0474,0.0549,0.0683,0.0683,0.0683,0.0683,0.0683,0,0.0728,0.0801,0.0825,0.0904,0.0942,0.095,0.1008,0.1036,0.104,0.1069,0.1052,0.1042,0.0984,0.0955,0.0963,0.0826,0.0833,0.0848,0.0647,0.0641,0.0486,0.057,0.0786,0.068,0.068,0.068,0.068,0,0.0684,0.0747,0.075,0.0789,0.0806,0.0811,0.0871,0.0907,0.0939,0.0916,0.0966,0.0933,0.0889,0.0858,0.0792,0.0786,0.0817,0.0685,0.0679,0.0648,0.0755,0.0584,0.0568,0.0777,0.0779,0.078,0.0678,0,0.0692,0.0715,0.0725,0.0744,0.0752,0.0764,0.0757,0.0763,0.0739,0.0727,0.0744,0.0663,0.0632,0.0619,0.0558,0.0616,0.0546,0.0493,0.0421,0.0526,0.046,0.0463,0.0375,0.0371,0.0368,0.0366,0,0,0.0649,0.0666,0.0629,0.065,0.066,0.0602,0.0633,0.062,0.0564,0.0576,0.052,0.0465,0.0391,0.0426,0.0454,0.0403,0.0357,0.0389,0.0469,0.0482,0.0492,0.0437,0.0444,0.036,0.0359,0.0358,0.0357,0,0.0637,0.0615,0.0629,0.0623,0.0598,0.0574,0.0577,0.0526,0.0511,0.05,0.0427,0.0404,0.0323,0.03,0.0275,0.0358,0.0254,0.0334,0.0461,0.0443,0.046,0.0473,0.0424,0.0431,0.0349,0.035,0.035,0,0.0608,0.0588,0.0585,0.0558,0.053,0.0539,0.0467,0.0447,0.0463,0.0333,0.0328,0.0263,0.0184,0.0183,0.0169,0.013,0.0162,0.0142,0.0157,0.0165,0.0141,0.0161,0.0178,-0.0044,-0.0045,-0.0045,0,0,0.0598,0.0596,0.0555,0.0549,0.0541,0.0485,0.0466,0.0427,0.0373,0.0346,0.0278,0.0211,0.0174,0.0146,0.0088,0.0084,0.0026,0.0102,0.012,0.0136,0.0154,0.0134,0.0153,-0.0048,-0.0048,-0.0048,0,0,0.0581,0.0542,0.0526,0.0515,0.049,0.0422,0.0415,0.0378,0.0324,0.0309,0.0211,0.0187,0.0167,0.0097,0.0081,0.0077,-0.0008,-0.0007,0.0143,0.0165,0.0182,0.022,-0.0018,0,0,0,0,0,0.055,0.0555,0.0541,0.0533,0.0468,0.044,0.0429,0.0365,0.0333,0.0331,0.0264,0.0192,0.0076,0.0058,0.0037,0.0085,-0.0076,-0.0071,-0.0066,0.0124,0.0148,0.0168,0,0,0,0,0,0,0.0547,0.0538,0.0541,0.0478,0.0463,0.0439,0.0375,0.0358,0.0331,0.0321,0.021,0.0189,0.0116,0.0062,0.0045,0.0092,-0.0013,-0.0074,-0.007,-0.0066,0.0132,0.0152,0.0168,0,0,0,0,0,0.0544,0.0536,0.0451,0.0477,0.0463,0.0386,0.0374,0.0359,0.0331,0.0228,0.0205,0.0285,0.0119,0.0097,0.0051,0.0103,-0.0001,-0.0007,-0.0071,-0.0068,-0.0065,0.0142,0,0,0,0,0,0,0.0541,0.0513,0.0446,0.044,0.0465,0.0385,0.0371,0.036,0.0235,0.0216,0.0297,0.0291,0.0121,0.0104,0.0088,0.0114,0.0008,0.0002,-0.0002,-0.0069,-0.0066,-0.0064,0,0,0,0,0,0,0.0517,0.0508,0.0443,0.0432,0.0423,0.0385,0.0373,0.0315,0.0233,0.031,0.0302,0.0295,0.0131,0.0109,0.0096,0.0009,0.0015,0.0009,0.0005,0.0002,-0.0066,-0.0064,0,0,0,0,0,0,0.0512,0.0504,0.0433,0.0426,0.0418,0.0334,0.0329,0.0255,0.026,0.0315,0.0256,0.0254,0.0137,0.0123,0.0102,0.0021,0.0012,0.0015,0.0011,0.0008,0.0006,0,0,0,0,0,0,0,0.0507,0.0578,0.0492,0.0421,0.0414,0.0378,0.0375,0.0373,0.026,0.0258,0.0256,0.0254,0.0049,0.0042,0.0036,0.0031,0,0,0.0015,0.0013,0,0,0,0,0,0,0,0,0.0579,0.0578,0.0491,0.049,0.0489,0.0377,0.0375,0.0374,0.026,0.0258,0.0257,0.0255,0.0047,0.0042,0.0037,0,0,0,0,0,0,0,0,0,0,0,0,0,0,0,0.0491,0.049,0,0.0377,0.0376,0.0374,0.0259,0.0258,0.0257,0.0256,0.0046,0.0041,0.0037,0,0,0,0,0,0,0,0,0,0,0,0,0,0,0,0,0,0,0,0,0,0,0,0,0,0,0,0,0,0,0,0,0,0,0,0,0,0,0,0,0,0,0,0,0,0,0,0,0,0,0,0,0,0,0,0,0,0,0,0,0,0,0,0,0,0,0,0,0]}]]]